OH5GWF-1 Weather Reports


Display with metric or nautical units.
time (UTC)temp
F
wind
direction
speed
MPH
gust
MPH
rain 1hr
in
rain 24hr
in
rain mn
in
humidity
%
barometer
mb
20260509021811 32 248 0.0 0.0 0.00 0.00 0.00 78 1030.2
20260509021108 32 248 0.0 0.0 0.00 0.00 0.00 77 1030.1
20260509020406 32 248 0.0 0.0 0.00 0.00 0.00 76 1029.9
20260509015702 32 248 0.0 0.0 0.00 0.00 0.00 74 1029.8
20260509015012 32 248 0.0 0.0 0.00 0.00 0.00 73 1030.0
20260509014310 33 248 0.0 0.0 0.00 0.00 0.00 72 1029.9
20260509013608 33 248 0.0 0.0 0.00 0.00 0.00 71 1029.8
20260509012907 33 248 0.0 0.0 0.00 0.00 0.00 71 1029.9
20260509012204 34 248 0.0 0.0 0.00 0.00 0.00 70 1030.0
20260509011502 34 248 0.0 0.0 0.00 0.00 0.00 69 1030.0
20260509010812 34 248 0.0 0.0 0.00 0.00 0.00 69 1029.9
20260509010110 35 248 0.0 0.0 0.00 0.00 0.00 68 1030.0
20260509005407 35 248 0.0 0.0 0.00 0.00 0.00 69 1029.9
20260509004705 35 248 0.0 0.0 0.00 0.00 0.00 69 1029.8
20260509004004 35 248 0.0 0.0 0.00 0.00 0.00 70 1029.7
20260509003301 35 248 0.0 0.0 0.00 0.00 0.00 71 1029.7
20260509002611 35 248 0.0 0.0 0.00 0.00 0.00 72 1029.6
20260509001910 35 248 0.0 0.0 0.00 0.00 0.00 72 1029.6
20260509001207 35 248 0.0 0.0 0.00 0.00 0.00 72 1029.5
20260509000506 35 248 0.0 0.0 0.00 0.00 0.00 71 1029.6
20260508235805 35 248 0.0 0.0 0.00 0.00 0.00 71 1029.6
20260508235102 35 248 0.0 0.0 0.00 0.00 0.00 71 1029.5
20260508234412 35 248 0.0 0.0 0.00 0.00 0.00 69 1029.6
20260508233710 36 248 0.0 0.0 0.00 0.00 0.00 68 1029.6
20260508233009 36 248 0.0 0.0 0.00 0.00 0.00 66 1029.6
20260508232307 36 248 0.0 0.0 0.00 0.00 0.00 66 1029.5
20260508231605 37 248 0.0 0.0 0.00 0.00 0.00 65 1029.4
20260508230903 37 248 0.0 1.0 0.00 0.00 0.00 63 1029.4
20260508230213 37 248 0.0 0.0 0.00 0.00 0.00 62 1029.3
20260508225510 38 248 0.0 0.0 0.00 0.00 0.00 61 1029.3
20260508224808 38 248 1.0 1.0 0.00 0.00 0.00 61 1029.3
20260508224105 38 248 0.0 2.0 0.00 0.00 0.00 59 1029.3
20260508223403 38 248 0.0 1.0 0.00 0.00 0.00 57 1029.4
20260508222702 39 248 0.0 0.0 0.00 0.00 0.00 56 1029.4
20260508222011 40 248 0.0 0.0 0.00 0.00 0.00 54 1029.2
20260508221309 41 248 0.0 1.0 0.00 0.00 0.00 54 1029.3
20260508220607 41 280 1.0 3.0 0.00 0.00 0.00 54 1029.2
20260508215906 41 295 2.0 2.0 0.00 0.00 0.00 54 1029.1
20260508215205 41 248 0.0 1.0 0.00 0.00 0.00 54 1029.1
20260508214502 41 248 0.0 1.0 0.00 0.00 0.00 53 1029.1
20260508213812 42 344 0.0 2.0 0.00 0.00 0.00 52 1029.0
20260508213110 41 248 0.0 1.0 0.00 0.00 0.00 53 1029.0
20260508212408 41 248 0.0 0.0 0.00 0.00 0.00 53 1028.9
20260508211707 41 248 0.0 0.0 0.00 0.00 0.00 54 1029.1
20260508211006 41 248 0.0 1.0 0.00 0.00 0.00 54 1029.0
20260508210303 40 248 0.0 0.0 0.00 0.00 0.00 53 1029.1
20260508205602 40 248 0.0 0.0 0.00 0.00 0.00 50 1029.1
20260508204912 41 248 0.0 0.0 0.00 0.00 0.00 50 1029.0
20260508204212 42 248 0.0 0.0 0.00 0.00 0.00 49 1028.9
20260508203509 42 248 0.0 0.0 0.00 0.00 0.00 48 1028.8
20260508202807 42 248 0.0 0.0 0.00 0.00 0.00 48 1028.8
20260508202104 42 248 0.0 0.0 0.00 0.00 0.00 47 1028.8
20260508201402 43 248 0.0 1.0 0.00 0.00 0.00 46 1028.7
20260508200711 43 248 1.0 2.0 0.00 0.00 0.00 46 1028.7
20260508200009 43 248 0.0 0.0 0.00 0.00 0.00 46 1028.8
20260508195307 43 248 1.0 2.0 0.00 0.00 0.00 46 1028.7
20260508194605 43 248 0.0 0.0 0.00 0.00 0.00 46 1028.6
20260508193902 43 248 0.0 0.0 0.00 0.00 0.00 46 1028.5
20260508193212 44 248 0.0 0.0 0.00 0.00 0.00 46 1028.4
20260508192509 44 248 0.0 0.0 0.00 0.00 0.00 45 1028.4
20260508191807 44 248 0.0 0.0 0.00 0.00 0.00 45 1028.3
20260508191105 44 259 1.0 2.0 0.00 0.00 0.00 45 1028.2
20260508190401 44 248 0.0 0.0 0.00 0.00 0.00 45 1028.2
20260508185711 44 248 0.0 1.0 0.00 0.00 0.00 45 1028.1
20260508185008 44 248 0.0 0.0 0.00 0.00 0.00 44 1028.1
20260508184305 45 248 0.0 0.0 0.00 0.00 0.00 44 1028.0
20260508183603 45 248 0.0 0.0 0.00 0.00 0.00 44 1028.0
20260508182950 46 248 0.0 1.0 0.00 0.00 0.00 44 1027.9
20260508182901 46 248 0.0 1.0 0.00 0.00 0.00 44 1027.9
20260508182210 46 248 0.0 0.0 0.00 0.00 0.00 43 1027.9
20260508181847 46 248 0.0 0.0 0.00 0.00 0.00 43 1028.0
20260508181508 47 248 0.0 1.0 0.00 0.00 0.00 43 1027.8
20260508180741 47 248 1.0 1.0 0.00 0.00 0.00 43 1027.9
20260508175650 48 248 0.0 1.0 0.00 0.00 0.00 42 1027.8
20260508175410 48 254 2.0 3.0 0.00 0.00 0.00 42 1027.7
20260508174708 48 248 2.0 2.0 0.00 0.00 0.00 41 1027.7
20260508174546 48 248 1.0 3.0 0.00 0.00 0.00 41 1027.7
20260508174006 49 248 1.0 5.0 0.00 0.00 0.00 41 1027.6
20260508173441 49 248 2.0 3.0 0.00 0.00 0.00 41 1027.5
20260508173304 49 248 2.0 2.0 0.00 0.00 0.00 41 1027.5
20260508172602 50 248 0.0 2.0 0.00 0.00 0.00 40 1027.4
20260508172349 50 261 1.0 2.0 0.00 0.00 0.00 40 1027.5
20260508171911 50 273 2.0 5.0 0.00 0.00 0.00 40 1027.4
20260508171247 50 281 3.0 6.0 0.00 0.00 0.00 40 1027.4
20260508171210 50 248 3.0 3.0 0.00 0.00 0.00 40 1027.3
20260508170508 50 273 3.0 6.0 0.00 0.00 0.00 39 1027.2
20260508170143 50 248 1.0 1.0 0.00 0.00 0.00 39 1027.1
20260508165805 50 248 2.0 5.0 0.00 0.00 0.00 39 1027.0
20260508165052 51 251 2.0 2.0 0.00 0.00 0.00 39 1027.0
20260508164411 51 249 1.0 0.0 0.00 0.00 0.00 38 1027.0
20260508163947 51 248 2.0 5.0 0.00 0.00 0.00 38 1027.0
20260508163708 51 264 5.0 7.0 0.00 0.00 0.00 38 1026.9
20260508163006 52 267 3.0 5.0 0.00 0.00 0.00 38 1026.9
20260508162842 52 350 3.0 5.0 0.00 0.00 0.00 38 1026.9
20260508162306 51 248 1.0 3.0 0.00 0.00 0.00 38 1026.8
20260508161750 52 204 3.0 7.0 0.00 0.00 0.00 38 1026.8
20260508161612 52 248 3.0 2.0 0.00 0.00 0.00 38 1026.7
20260508160910 52 240 2.0 7.0 0.00 0.00 0.00 38 1026.7
20260508160647 52 285 5.0 7.0 0.00 0.00 0.00 38 1026.7
20260508160208 52 259 1.0 7.0 0.00 0.00 0.00 38 1026.9
20260508155543 52 250 1.0 3.0 0.00 0.00 0.00 38 1026.8
20260508155506 52 248 0.0 3.0 0.00 0.00 0.00 38 1026.8
20260508154803 52 325 3.0 7.0 0.00 0.00 0.00 37 1026.7
20260508154451 52 250 2.0 8.0 0.00 0.00 0.00 37 1026.8
20260508154101 53 349 3.0 9.0 0.00 0.00 0.00 37 1026.7
20260508153410 53 248 3.0 5.0 0.00 0.00 0.00 37 1026.7
20260508153348 53 248 3.0 5.0 0.00 0.00 0.00 37 1026.7
20260508152708 53 16 3.0 6.0 0.00 0.00 0.00 37 1026.8
20260508152245 53 248 1.0 3.0 0.00 0.00 0.00 37 1026.7
20260508152005 53 313 3.0 5.0 0.00 0.00 0.00 37 1026.6
20260508151303 53 249 2.0 3.0 0.00 0.00 0.00 36 1026.5
20260508151152 53 251 3.0 3.0 0.00 0.00 0.00 36 1026.5
20260508150601 54 272 3.0 5.0 0.00 0.00 0.00 35 1026.5
20260508150049 56 14 5.0 6.0 0.00 0.00 0.00 34 1026.5
20260508145911 57 248 3.0 3.0 0.00 0.00 0.00 33 1026.5
20260508145208 60 251 3.0 5.0 0.00 0.00 0.00 32 1026.4
20260508144944 62 178 9.0 9.0 0.00 0.00 0.00 31 1026.5
20260508144505 66 318 2.0 3.0 0.00 0.00 0.00 30 1026.4
20260508143852 67 19 5.0 8.0 0.00 0.00 0.00 30 1026.4
20260508143802 67 313 3.0 8.0 0.00 0.00 0.00 30 1026.5
20260508143112 64 21 2.0 5.0 0.00 0.00 0.00 32 1026.6
20260508142748 61 294 1.0 7.0 0.00 0.00 0.00 33 1026.5
20260508142410 59 232 1.0 6.0 0.00 0.00 0.00 32 1026.6
20260508141708 66 262 3.0 5.0 0.00 0.00 0.00 30 1026.5
20260508141645 66 262 3.0 5.0 0.00 0.00 0.00 30 1026.5
20260508141005 70 285 6.0 9.0 0.00 0.00 0.00 29 1026.6
20260508140552 70 271 3.0 6.0 0.00 0.00 0.00 29 1026.6
20260508140302 70 271 2.0 5.0 0.00 0.00 0.00 29 1026.6
20260508135612 70 310 2.0 5.0 0.00 0.00 0.00 30 1026.6
20260508135518 69 19 2.0 2.0 0.00 0.00 0.00 30 1026.6
20260508134909 66 248 3.0 6.0 0.00 0.00 0.00 31 1026.7
20260508134346 62 248 3.0 6.0 0.00 0.00 0.00 34 1026.6
20260508134207 59 327 3.0 10.0 0.00 0.00 0.00 34 1026.6
20260508133506 57 84 5.0 6.0 0.00 0.00 0.00 35 1026.7
20260508133242 57 334 5.0 8.0 0.00 0.00 0.00 35 1026.6
20260508132803 58 2 7.0 12.0 0.00 0.00 0.00 36 1026.6
20260508132150 57 294 3.0 3.0 0.00 0.00 0.00 36 1026.6
20260508132101 56 252 1.0 3.0 0.00 0.00 0.00 36 1026.6
20260508131411 55 333 5.0 8.0 0.00 0.00 0.00 36 1026.6
20260508131047 55 100 5.0 10.0 0.00 0.00 0.00 35 1026.6
20260508130708 56 281 2.0 5.0 0.00 0.00 0.00 35 1026.7
20260508125943 59 331 3.0 6.0 0.00 0.00 0.00 34 1026.7
20260508125306 64 253 5.0 5.0 0.00 0.00 0.00 31 1026.5
20260508124851 67 308 3.0 3.0 0.00 0.00 0.00 30 1026.5
20260508124612 70 259 6.0 9.0 0.00 0.00 0.00 29 1026.5
20260508123910 70 22 3.0 7.0 0.00 0.00 0.00 30 1026.6
20260508123746 70 334 2.0 8.0 0.00 0.00 0.00 30 1026.5
20260508123207 68 315 2.0 6.0 0.00 0.00 0.00 30 1026.7
20260508122655 67 286 7.0 10.0 0.00 0.00 0.00 31 1026.7
20260508122504 67 294 7.0 12.0 0.00 0.00 0.00 30 1026.7
20260508121802 68 250 5.0 9.0 0.00 0.00 0.00 31 1026.8
20260508121550 67 249 2.0 2.0 0.00 0.00 0.00 31 1026.6
20260508121111 66 282 3.0 8.0 0.00 0.00 0.00 31 1026.7
20260508120446 66 259 2.0 8.0 0.00 0.00 0.00 31 1026.7
20260508120408 66 319 5.0 6.0 0.00 0.00 0.00 31 1026.8
20260508115705 67 331 6.0 13.0 0.00 0.00 0.00 31 1026.5
20260508115341 66 298 5.0 10.0 0.00 0.00 0.00 31 1026.4
20260508115002 66 262 5.0 9.0 0.00 0.00 0.00 31 1026.5
20260508114251 66 293 5.0 6.0 0.00 0.00 0.00 30 1026.4
20260508113611 66 21 3.0 7.0 0.00 0.00 0.00 32 1026.4
20260508112910 65 343 3.0 7.0 0.00 0.00 0.00 33 1026.7
20260508112208 64 325 5.0 8.0 0.00 0.00 0.00 33 1026.6
20260508111506 64 253 1.0 2.0 0.00 0.00 0.00 33 1026.6
20260508110803 62 245 3.0 7.0 0.00 0.00 0.00 35 1026.5
20260508110112 62 4 5.0 7.0 0.00 0.00 0.00 35 1026.5
20260508105410 60 251 8.0 12.0 0.00 0.00 0.00 36 1026.4
20260508104706 60 332 3.0 10.0 0.00 0.00 0.00 36 1026.4
20260508104005 59 1 2.0 7.0 0.00 0.00 0.00 37 1026.5
20260508103303 57 249 6.0 14.0 0.00 0.00 0.00 38 1026.3
20260508102612 56 17 10.0 16.0 0.00 0.00 0.00 38 1026.4
20260508101910 56 254 8.0 10.0 0.00 0.00 0.00 38 1026.3
20260508101208 55 328 7.0 9.0 0.00 0.00 0.00 38 1026.3
20260508100504 56 258 8.0 13.0 0.00 0.00 0.00 38 1026.2
20260508095803 55 257 6.0 12.0 0.00 0.00 0.00 38 1026.2
20260508095112 55 289 8.0 16.0 0.00 0.00 0.00 38 1026.3
20260508094409 55 22 5.0 5.0 0.00 0.00 0.00 41 1026.3
20260508093707 55 314 3.0 7.0 0.00 0.00 0.00 40 1026.3
20260508093005 55 104 6.0 9.0 0.00 0.00 0.00 40 1026.2
20260508092312 55 249 6.0 6.0 0.00 0.00 0.00 40 1026.2
20260508091602 56 283 5.0 10.0 0.00 0.00 0.00 40 1026.3
20260508090912 56 324 5.0 12.0 0.00 0.00 0.00 40 1026.2
20260508090210 55 259 3.0 6.0 0.00 0.00 0.00 38 1026.1
20260508085508 57 303 3.0 10.0 0.00 0.00 0.00 40 1026.1
20260508084806 57 237 1.0 6.0 0.00 0.00 0.00 40 1026.1
20260508084103 57 1 7.0 16.0 0.00 0.00 0.00 40 1026.1
20260508083412 57 226 5.0 10.0 0.00 0.00 0.00 42 1026.0
20260508082710 57 249 5.0 9.0 0.00 0.00 0.00 41 1026.1
20260508082007 57 276 6.0 10.0 0.00 0.00 0.00 41 1026.0
20260508081305 58 281 6.0 12.0 0.00 0.00 0.00 41 1026.0
20260508080601 58 8 2.0 9.0 0.00 0.00 0.00 43 1025.8
20260508075911 57 307 7.0 7.0 0.00 0.00 0.00 42 1025.8
20260508075209 58 258 5.0 13.0 0.00 0.00 0.00 42 1025.8
20260508074506 58 311 3.0 7.0 0.00 0.00 0.00 44 1025.5
20260508073804 57 248 2.0 2.0 0.00 0.00 0.00 44 1025.6
20260508073103 57 291 5.0 13.0 0.00 0.00 0.00 45 1025.6
20260508072412 57 307 6.0 10.0 0.00 0.00 0.00 44 1025.4
20260508071709 57 258 5.0 3.0 0.00 0.00 0.00 46 1025.3
20260508071006 57 286 3.0 5.0 0.00 0.00 0.00 47 1025.3
20260508070304 56 296 5.0 9.0 0.00 0.00 0.00 47 1025.3
20260508065602 54 284 5.0 8.0 0.00 0.00 0.00 49 1025.2
20260508064911 54 266 6.0 8.0 0.00 0.00 0.00 49 1025.1
20260508064209 54 356 5.0 10.0 0.00 0.00 0.00 49 1024.9
20260508063505 53 357 3.0 6.0 0.00 0.00 0.00 50 1024.9
20260508062803 52 246 3.0 5.0 0.00 0.00 0.00 52 1024.9
20260508062101 52 254 6.0 9.0 0.00 0.00 0.00 53 1025.0
20260508061410 51 18 5.0 5.0 0.00 0.00 0.00 54 1024.7
20260508060707 50 4 3.0 5.0 0.00 0.00 0.00 55 1024.6
20260508060005 49 250 5.0 8.0 0.00 0.00 0.00 56 1024.7
20260508055305 49 21 6.0 7.0 0.00 0.00 0.00 57 1024.5
20260508054612 49 253 3.0 7.0 0.00 0.00 0.00 59 1024.5
20260508053909 48 265 3.0 5.0 0.00 0.00 0.00 61 1024.5
20260508053207 47 261 5.0 9.0 0.00 0.00 0.00 62 1024.5
20260508052505 46 334 5.0 5.0 0.00 0.00 0.00 63 1024.3
20260508051804 46 311 2.0 5.0 0.00 0.00 0.00 65 1024.2
20260508051102 45 250 1.0 5.0 0.00 0.00 0.00 65 1024.1
20260508050411 45 335 2.0 5.0 0.00 0.00 0.00 67 1023.9
20260508045709 44 288 3.0 5.0 0.00 0.00 0.00 68 1023.9
20260508045007 43 330 6.0 8.0 0.00 0.00 0.00 69 1023.8
20260508044303 42 5 5.0 8.0 0.00 0.00 0.00 69 1023.8
20260508043601 42 256 5.0 10.0 0.00 0.00 0.00 69 1023.7
20260508042912 42 344 5.0 9.0 0.00 0.00 0.00 69 1023.7
20260508042211 42 333 3.0 9.0 0.00 0.00 0.00 70 1023.5
20260508041509 41 265 3.0 7.0 0.00 0.00 0.00 70 1023.5
20260508040805 41 8 3.0 6.0 0.00 0.00 0.00 70 1023.3
20260508040104 40 253 3.0 5.0 0.00 0.00 0.00 70 1023.2
20260508035403 40 284 5.0 7.0 0.00 0.00 0.00 71 1023.2
20260508034701 39 313 7.0 6.0 0.00 0.00 0.00 72 1023.1
20260508034011 39 253 3.0 6.0 0.00 0.00 0.00 72 1023.1
20260508033308 38 250 1.0 5.0 0.00 0.00 0.00 72 1023.0
20260508032606 38 252 2.0 3.0 0.00 0.00 0.00 73 1022.9
20260508031905 37 74 2.0 3.0 0.00 0.00 0.00 74 1023.0
20260508031204 36 248 2.0 3.0 0.00 0.00 0.00 75 1022.9
20260508030502 36 248 1.0 6.0 0.00 0.00 0.00 76 1022.9
20260508025811 35 249 1.0 3.0 0.00 0.00 0.00 76 1022.8
20260508025109 34 248 1.0 2.0 0.00 0.00 0.00 76 1022.8
20260508024406 34 248 0.0 1.0 0.00 0.00 0.00 76 1022.7
20260508023704 34 248 1.0 5.0 0.00 0.00 0.00 76 1022.5
20260508023002 33 248 1.0 2.0 0.00 0.00 0.00 75 1022.4
20260508022312 33 248 0.0 0.0 0.00 0.00 0.00 75 1022.3